Flag for Marshall Islands Weather past 2 weeks in Majuro, Marshall Islands

Now
85 °F

Cloudy.


Feels Like: 95 °F
Forecast: 82 / 86 °F
Wind: 14 mph from Northeast

Location: Majuro Atoll

Current Time: May 6, 2015 at 12:23:10 PM

Latest Report: May 6, 2015 at 11:53 AM


Visibility: 15 mi

Pressure: 29.77 "Hg

Humidity: 75%

Dew point: 76 °F

Location of MajuroLocation

Historic Weather in Majuro — Graph

°F

Majuro temperature yesterday

Maximum temperature yesterday: 87 °F (at 1:50 PM)
Minimum temperature yesterday: 82 °F (at 8:53 PM)
Average temperature yesterday: 84 °F

Past Weeks' High & Low Weather Summary

 TemperatureHumidityPressure
High87 °F (Apr 24, 1:55 PM)95% (Apr 22, 11:51 PM)29.88 "Hg (Apr 22, 11:51 PM)
Low77 °F (Apr 23, 4:50 AM)70% (May 5, 1:50 PM)29.68 "Hg (May 5, 3:51 PM)
Average83 °F82%29.80 "Hg
* Reported Apr 21 10:51 AM — May 6 10:51 AM, Majuro, Weather by CustomWeather, © 2015

Note: Actual official high and low records may vary slightly from our data, if they occured in-between our weather recording intervals... More about our weather records

Advertising

Majuro weather history for previous 24 hours

 ConditionsComfort  
Time TempWeatherWind HumidityBarometerVisibility
10:51 AM
Wed, May 6
84 °FCloudy.16 mph76%29.78 "Hg15 mi
9:50 AM84 °FCloudy.15 mph73%29.78 "Hg15 mi
8:52 AM85 °FCloudy.17 mph74%29.77 "Hg15 mi
7:51 AM83 °FBroken clouds.17 mph78%29.75 "Hg15 mi
6:50 AM83 °FPassing clouds.13 mph78%29.73 "Hg15 mi
5:51 AM83 °FPassing clouds.14 mph79%29.72 "Hg15 mi
4:53 AM83 °FMostly cloudy.14 mph78%29.70 "Hg15 mi
2:57 AM83 °FMostly cloudy.14 mph81%29.70 "Hg15 mi
1:54 AM83 °FOvercast.15 mph81%29.72 "Hg15 mi
12:50 AM83 °FOvercast.12 mph79%29.75 "Hg15 mi
11:50 PM
Tue, May 5
82 °FPartly cloudy.10 mph86%29.75 "Hg15 mi
10:51 PM82 °FPartly cloudy.15 mph84%29.77 "Hg15 mi
9:52 PM82 °FPassing clouds.12 mph81%29.75 "Hg15 mi
8:53 PM82 °FPassing clouds.12 mph82%29.74 "Hg15 mi
7:55 PM83 °FPartly cloudy.9 mph81%29.72 "Hg15 mi
6:51 PM83 °FBroken clouds.7 mph79%29.70 "Hg15 mi
5:54 PM84 °FScattered clouds.12 mph78%29.70 "Hg15 mi
4:51 PM86 °FScattered clouds.10 mph74%29.68 "Hg20 mi
3:51 PM86 °FScattered clouds.12 mph73%29.68 "Hg20 mi
2:55 PM87 °FScattered clouds.13 mph72%29.68 "Hg20 mi
1:50 PM87 °FScattered clouds.12 mph70%29.70 "Hg20 mi
12:50 PM87 °FScattered clouds.12 mph72%29.73 "Hg20 mi
Weather by CustomWeather, © 2015

See weather overviewHow to use our weather pages